Home > Weather > Pensacola > Past weeks

Flag for USA Past Weather in Pensacola, Florida, USA — Yesterday and Last 2 Weeks

Now
79 °F

Clear.


Feels Like: 82 °F
Forecast: 72 / 92 °F
Wind: 3 mph from Northwest

Location: Pensacola Regional Airport

Current Time: May 29, 2016 at 8:20:18 PM

Latest Report: May 29, 2016 at 7:53 PM


Visibility: 10 mi

Pressure: 30.02 "Hg

Humidity: 72%

Dew Point: 69 °F

Location of PensacolaLocation

Past Weather in Pensacola — Graph

°F

Pensacola Temperature Yesterday

Maximum temperature yesterday: 85 °F (at 3:53 PM)
Minimum temperature yesterday: 73 °F (at 1:53 AM)
Average temperature yesterday: 78 °F

High & Low Weather Summary for the Past Weeks

 TemperatureHumidityPressure
High90 °F (May 29, 2:53 PM)94% (May 19, 1:53 AM)30.21 "Hg (May 19, 1:53 AM)
Low60 °F (May 23, 5:53 AM)30% (May 24, 2:53 PM)29.89 "Hg (May 18, 2:53 AM)
Average77 °F68%30.02 "Hg
* Reported May 14 6:53 PM — May 29 6:53 PM, Pensacola, Weather by CustomWeather, © 2016

Note: Actual official high and low records may vary slightly from our data, if they occured in-between our weather recording intervals... More about our weather records

Advertising

Pensacola Weather History for the Previous 24 Hours

Scroll right to see more
 ConditionsComfort  
Time TempWeatherWind HumidityBarometerVisibility
6:53 PM
Sun, May 29
80 °FLight rain. Broken clouds.8 mph74%30.00 "Hg10 mi
5:53 PM78 °FLight rain. Partly sunny.6 mph79%30.03 "Hg10 mi
4:53 PM85 °FThundershowers. Partly sunny.13 mph50%30.03 "Hg10 mi
3:53 PM85 °FSunny.14 mph48%30.03 "Hg10 mi
2:53 PM90 °FScattered clouds.12 mph43%30.05 "Hg10 mi
1:53 PM87 °FScattered clouds.12 mph48%30.07 "Hg10 mi
12:53 PM89 °FScattered clouds.8 mph48%30.09 "Hg10 mi
11:53 AM88 °FScattered clouds.No wind48%30.10 "Hg10 mi
10:53 AM87 °FScattered clouds.3 mph50%30.11 "Hg10 mi
9:53 AM85 °FSunny.6 mph53%30.11 "Hg10 mi
8:53 AM82 °FSunny.6 mph60%30.10 "Hg10 mi
7:53 AM78 °FSunny.7 mph69%30.10 "Hg10 mi
6:53 AM73 °FSunny.6 mph81%30.08 "Hg10 mi
5:53 AM71 °FSunny.7 mph84%30.07 "Hg10 mi
4:53 AM71 °FOvercast.5 mph87%30.06 "Hg10 mi
3:53 AM71 °FClear.5 mph87%30.05 "Hg10 mi
2:53 AM72 °FClear.5 mph84%30.05 "Hg10 mi
1:53 AM73 °FClear.No wind81%30.06 "Hg10 mi
12:53 AM74 °FClear.3 mph79%30.06 "Hg10 mi
11:53 PM
Sat, May 28
74 °FClear.No wind79%30.07 "Hg10 mi
10:53 PM74 °FClear.No wind79%30.07 "Hg10 mi
9:53 PM74 °FClear.No wind79%30.07 "Hg10 mi
8:53 PM75 °FClear.No wind74%30.06 "Hg10 mi
Weather by CustomWeather, © 2016

See weather overviewHow to use our weather pages